Flag for Denmark Weather past 2 weeks in Odense, Denmark

Now
59 °F

Partly sunny.


Feels Like: 58 °F
Forecast: 53 / 63 °F
Wind: 7 mph from Southwest

Location: Odense / Beldringe

Current Time: Oct 1, 2014 at 6:51:06 PM

Latest Report: Oct 1, 2014 at 4:50 PM


Visibility: 6 mi

Pressure: 30.27 "Hg

Humidity: 94%

Dew point: 57 °F

Location of OdenseLocation

Historic Weather in Odense — Graph

°F

Odense temperature yesterday

Maximum temperature yesterday: 55 °F (at 10:50 AM)
Minimum temperature yesterday: 54 °F (at 7:20 AM)
Average temperature yesterday: 54 °F

Past Weeks' High & Low Weather Summary

 TemperatureHumidityPressure
High70 °F (Sep 17, 3:50 PM)100% (Sep 17, 7:20 AM)30.27 "Hg (Sep 17, 7:20 AM)
Low43 °F (Sep 23, 7:50 AM)46% (Sep 19, 2:50 PM)29.65 "Hg (Sep 24, 5:20 PM)
Average57 °F90%30.07 "Hg
* Reported Sep 16 4:50 PM — Oct 1 4:50 PM, Odense, Weather by CustomWeather, © 2014

Note: Actual official high and low records may vary slightly from our data, if they occured in-between our weather recording intervals... More about our weather records

Advertising

Odense weather history for previous 24 hours

 ConditionsComfort  
Time TempWeatherWind HumidityBarometerVisibility
4:50 PM
Oct 1
59 °FPartly sunny.7 mph94%30.27 "Hg6 mi
3:50 PM59 °FPartly sunny.5 mph94%30.27 "HgN/A
2:50 PM61 °FScattered clouds.6 mph88%30.27 "HgN/A
1:50 PM61 °FScattered clouds.6 mph83%30.27 "HgN/A
1:20 PM61 °FScattered clouds.9 mph83%30.27 "Hg5 mi
12:50 PM61 °FPartly sunny.6 mph88%30.27 "Hg4 mi
12:20 PM59 °FBroken clouds.5 mph94%30.27 "Hg3 mi
11:50 AM57 °FFog.3 mph94%30.27 "Hg2 mi
11:20 AM57 °FFog.3 mph94%30.27 "Hg1 mi
10:50 AM55 °FFog.3 mph100%30.27 "Hg1 mi
10:20 AM55 °FFog.3 mph100%30.27 "Hg1 mi
9:50 AM55 °FFog.5 mph100%30.27 "Hg1 mi
9:20 AM55 °FFog.5 mph100%30.24 "Hg1 mi
8:50 AM55 °FFog.3 mph100%30.24 "Hg1 mi
8:20 AM55 °FFog.3 mph94%30.24 "Hg1 mi
7:50 AM55 °FFog.3 mph94%30.24 "Hg1 mi
7:20 AM55 °FFog.3 mph94%30.24 "Hg1 mi
6:50 PM
Sep 30
54 °FLight rain. Broken clouds.8 mph100%30.24 "Hg4 mi
6:20 PM54 °FLight rain. Broken clouds.9 mph100%30.24 "Hg4 mi
Weather by CustomWeather, © 2014

See weather overviewHow to use our weather pages